This is the latest recevied weather packets stored in our database for station/object N8QF. If no packets are shown the sender has not sent any weather packets the latest 10 day(s).
| Time | Temp. | Humidity | Pressure | Rain* | Wind** | Luminosity | Snow |
|---|---|---|---|---|---|---|---|
| 1777997496 | 18.89° C | 64% | 1008.3 hPa | 1.78 mm | - | - | - |
| 1777997196 | 19.44° C | 64% | 1008.3 hPa | 1.78 mm | - | - | - |
| 1777996895 | 19.44° C | 63% | 1008.2 hPa | 1.78 mm | - | - | - |
| 1777996595 | 19.44° C | 64% | 1008.2 hPa | 1.78 mm | - | - | - |
| 1777996295 | 19.44° C | 63% | 1008.2 hPa | 1.78 mm | - | - | - |
| 1777995995 | 19.44° C | 63% | 1008.2 hPa | 1.78 mm | - | - | - |
| 1777995694 | 19.44° C | 66% | 1008 hPa | 1.78 mm | - | - | - |
| 1777995394 | 19.44° C | 67% | 1008 hPa | 1.78 mm | - | - | - |
| 1777995094 | 19.44° C | 67% | 1008 hPa | 1.78 mm | - | - | - |
| 1777994794 | 19.44° C | 68% | 1008.1 hPa | 1.78 mm | - | - | - |
| 1777994494 | 18.89° C | 69% | 1008.1 hPa | 1.78 mm | - | - | - |
| 1777994192 | 18.89° C | 71% | 1008.1 hPa | 1.78 mm | - | - | - |
| 1777993892 | 18.33° C | 69% | 1008.1 hPa | 1.78 mm | - | - | - |
| 1777993592 | 18.89° C | 71% | 1008.1 hPa | 1.78 mm | - | - | - |
| 1777993291 | 18.89° C | 71% | 1008.1 hPa | 1.78 mm | - | - | - |
| 1777992990 | 18.33° C | 72% | 1008.1 hPa | 1.78 mm | - | - | - |
| 1777992686 | 18.33° C | 73% | 1008 hPa | 1.78 mm | - | - | - |
| 1777992385 | 18.33° C | 72% | 1008.1 hPa | 1.78 mm | - | - | - |
| 1777992084 | 18.33° C | 75% | 1008 hPa | 1.78 mm | - | - | - |
| 1777991784 | 17.78° C | 75% | 1007.9 hPa | 1.78 mm | - | - | - |
| 1777991484 | 17.78° C | 76% | 1007.9 hPa | 1.78 mm | - | - | - |
| 1777991183 | 17.22° C | 79% | 1007.8 hPa | 1.78 mm | - | - | - |
| 1777990883 | 17.22° C | 80% | 1007.8 hPa | 1.78 mm | - | - | - |
| 1777990583 | 17.22° C | 83% | 1007.7 hPa | 1.78 mm | - | - | - |
| 1777989982 | 16.67° C | 84% | 1007.7 hPa | 1.78 mm | - | - | - |
* Rain since midnight (hover to see other rain measurements)
** Current wind speed in m/s (hover to see current wind gust speed)